Weather History for Warsaw, IN

Change the Weather History Date:

Sunday, January 12, 2014

  Actual Average Record
Temperature  
Mean Temperature 36 °F -  
Max Temperature 41 °F 28 °F 60 °F (2005)
Min Temperature 30 °F 14 °F -12 °F (1977)
Degree Days  
Heating Degree Days 30    
Moisture  
Dew Point 29 °F    
Average Humidity 85    
Maximum Humidity 93    
Minimum Humidity 65    
Precipitation  
Precipitation 0.00 in - - ()
Sea Level Pressure  
Sea Level Pressure 29.84 in    
Wind  
Wind Speed 10 mph (SSW)    
Max Wind Speed 15 mph    
Max Gust Speed 26 mph    
Visibility 10 miles    
Events      
Averages and records for this station are not official NWS values.
T = Trace of Precipitation, MM = Missing Value Source: NWS Daily Summary

Daily Weather History Graph

Daily Weather History Graph

Search for Another Location

Airport:

Trip Planner

Search our weather history database for the weather conditions in past years. The results will help you decide how hot, cold, wet, or windy it might be!

Date:

Astronomy

Jan. 12, 2014 Rise Set
Actual Time 8:07 AM EST 5:35 PM EST
Civil Twilight 7:37 AM EST 6:06 PM EST
Nautical Twilight 7:03 AM EST 6:40 PM EST
Astronomical Twilight 6:29 AM EST 7:13 PM EST
Moon 3:03 PM EST (1/12) 5:05 AM EST (1/12)
Length of Visible Light 10h 29m
Length of Day
9h 27m
Waxing Gibbous, 89% of the Moon is Illuminated
Jan 12
Waxing Gibbous
Jan 15
Full
Jan 24
Last Quarter
Jan 30
New
Feb 6
First Quarter

Hourly Weather History & Observations

Time (EST) Temp. Windchill Dew Point Humidity Pressure Visibility Wind Dir Wind Speed Gust Speed Precip Events Conditions
12:15 AM 32.0 °F 23.0 °F 30.2 °F 93% 29.75 in 7.0 mi West 11.5 mph - N/A   Overcast
12:35 AM 32.0 °F 24.2 °F 28.4 °F 87% 29.75 in 7.0 mi West 9.2 mph - N/A   Overcast
12:55 AM 32.0 °F 24.2 °F 30.2 °F 93% 29.75 in 5.0 mi West 9.2 mph - N/A   Overcast
1:15 AM 32.0 °F 23.0 °F 30.2 °F 93% 29.76 in 7.0 mi West 11.5 mph - N/A   Overcast
1:35 AM 32.0 °F 23.6 °F 30.2 °F 93% 29.76 in 7.0 mi West 10.4 mph - N/A   Overcast
1:55 AM 32.0 °F 23.6 °F 30.2 °F 93% 29.77 in 7.0 mi West 10.4 mph - N/A   Overcast
2:15 AM 32.0 °F 23.6 °F 30.2 °F 93% 29.78 in 7.0 mi West 10.4 mph - N/A   Overcast
2:35 AM 32.0 °F 23.6 °F 28.4 °F 87% 29.79 in 7.0 mi West 10.4 mph - N/A   Overcast
2:55 AM 32.0 °F 22.5 °F 28.4 °F 87% 29.81 in 10.0 mi West 12.7 mph - N/A   Overcast
3:15 AM 32.0 °F 22.5 °F 28.4 °F 87% 29.81 in 10.0 mi West 12.7 mph - N/A   Overcast
3:35 AM 32.0 °F 23.6 °F 28.4 °F 87% 29.82 in 10.0 mi West 10.4 mph - N/A   Overcast
3:55 AM 32.0 °F 24.2 °F 28.4 °F 87% 29.84 in 10.0 mi West 9.2 mph - N/A   Overcast
4:15 AM 32.0 °F 23.0 °F 28.4 °F 87% 29.85 in 10.0 mi West 11.5 mph - N/A   Overcast
4:35 AM 32.0 °F 22.5 °F 28.4 °F 87% 29.86 in 10.0 mi West 12.7 mph 19.6 mph N/A   Overcast
4:55 AM 32.0 °F 21.6 °F 28.4 °F 87% 29.86 in 10.0 mi West 15.0 mph - N/A   Overcast
5:15 AM 32.0 °F 23.0 °F 28.4 °F 87% 29.86 in 10.0 mi West 11.5 mph - N/A   Overcast
5:35 AM 32.0 °F 23.6 °F 28.4 °F 87% 29.85 in 10.0 mi West 10.4 mph - N/A   Overcast
5:55 AM 30.2 °F 22.6 °F 28.4 °F 93% 29.86 in 10.0 mi West 8.1 mph - N/A   Overcast
6:15 AM 30.2 °F 23.4 °F 28.4 °F 93% 29.87 in 10.0 mi WSW 6.9 mph - N/A   Overcast
6:35 AM 30.2 °F 21.9 °F 26.6 °F 86% 29.88 in 10.0 mi West 9.2 mph - N/A   Overcast
6:55 AM 30.2 °F 24.3 °F 26.6 °F 86% 29.88 in 10.0 mi WSW 5.8 mph - N/A   Overcast
7:15 AM 30.2 °F 24.3 °F 26.6 °F 86% 29.89 in 10.0 mi West 5.8 mph - N/A   Overcast
7:35 AM 30.2 °F 23.4 °F 26.6 °F 86% 29.90 in 10.0 mi WSW 6.9 mph - N/A   Overcast
7:55 AM 30.2 °F 23.4 °F 26.6 °F 86% 29.91 in 10.0 mi SW 6.9 mph - N/A   Overcast
8:15 AM 30.2 °F 26.7 °F 26.6 °F 86% 29.91 in 10.0 mi SW 3.5 mph - N/A   Overcast
8:35 AM 30.2 °F 21.9 °F 26.6 °F 86% 29.92 in 10.0 mi SW 9.2 mph - N/A   Overcast
8:55 AM 30.2 °F 25.4 °F 26.6 °F 86% 29.93 in 10.0 mi SW 4.6 mph - N/A   Overcast
9:15 AM 30.2 °F 22.6 °F 26.6 °F 86% 29.95 in 7.0 mi WSW 8.1 mph - N/A   Overcast
9:35 AM 30.2 °F 21.9 °F 28.4 °F 93% 29.96 in 7.0 mi WSW 9.2 mph - N/A   Overcast
9:55 AM 30.2 °F 22.6 °F 28.4 °F 93% 29.96 in 10.0 mi SW 8.1 mph - N/A   Overcast
10:15 AM 30.2 °F 21.3 °F 28.4 °F 93% 29.97 in 10.0 mi SSW 10.4 mph - N/A   Overcast
10:35 AM 30.2 °F 21.3 °F 28.4 °F 93% 29.98 in 10.0 mi SSW 10.4 mph - N/A   Overcast
10:55 AM 30.2 °F 22.6 °F 28.4 °F 93% 29.97 in 10.0 mi SSW 8.1 mph - N/A   Overcast
11:15 AM 32.0 °F 24.2 °F 28.4 °F 87% 29.96 in 10.0 mi South 9.2 mph - N/A   Overcast
11:35 AM 30.2 °F 22.6 °F 28.4 °F 93% 29.97 in 10.0 mi South 8.1 mph 16.1 mph N/A   Overcast
11:55 AM 32.0 °F 24.8 °F 28.4 °F 87% 29.95 in 10.0 mi South 8.1 mph - N/A   Overcast
12:15 PM 32.0 °F 24.8 °F 28.4 °F 87% 29.94 in 10.0 mi South 8.1 mph - N/A   Overcast
12:35 PM 32.0 °F 24.8 °F 28.4 °F 87% 29.93 in 10.0 mi South 8.1 mph - N/A   Overcast
12:55 PM 32.0 °F 23.6 °F 28.4 °F 87% 29.90 in 10.0 mi South 10.4 mph - N/A   Mostly Cloudy
1:15 PM 32.0 °F 24.2 °F 28.4 °F 87% 29.89 in 10.0 mi South 9.2 mph 16.1 mph N/A   Scattered Clouds
1:35 PM 32.0 °F 23.6 °F 28.4 °F 87% 29.88 in 10.0 mi South 10.4 mph 16.1 mph N/A   Scattered Clouds
1:55 PM 32.0 °F 23.0 °F 28.4 °F 87% 29.87 in 10.0 mi South 11.5 mph 17.3 mph N/A   Scattered Clouds
2:15 PM 33.8 °F 25.8 °F 28.4 °F 81% 29.86 in 10.0 mi South 10.4 mph 17.3 mph N/A   Clear
2:35 PM 33.8 °F 27.0 °F 28.4 °F 81% 29.86 in 10.0 mi South 8.1 mph 16.1 mph N/A   Clear
2:55 PM 33.8 °F 26.4 °F 28.4 °F 81% 29.86 in 10.0 mi South 9.2 mph 16.1 mph N/A   Clear
3:15 PM 33.8 °F 25.8 °F 30.2 °F 87% 29.85 in 10.0 mi South 10.4 mph - N/A   Clear
3:35 PM 33.8 °F 26.4 °F 30.2 °F 87% 29.85 in 7.0 mi South 9.2 mph - N/A   Clear
3:55 PM 33.8 °F 26.4 °F 30.2 °F 87% 29.83 in 10.0 mi South 9.2 mph 17.3 mph N/A   Clear
4:15 PM 33.8 °F 27.7 °F 30.2 °F 87% 29.84 in 10.0 mi South 6.9 mph 16.1 mph N/A   Clear
4:35 PM 33.8 °F 27.0 °F 30.2 °F 87% 29.84 in 10.0 mi South 8.1 mph - N/A   Clear
4:55 PM 35.6 °F 29.2 °F 30.2 °F 81% 29.83 in 10.0 mi South 8.1 mph 17.3 mph N/A   Clear
5:15 PM 35.6 °F 29.2 °F 30.2 °F 81% 29.81 in 10.0 mi SSE 8.1 mph - N/A   Clear
5:35 PM 35.6 °F 28.6 °F 30.2 °F 81% 29.82 in 10.0 mi South 9.2 mph - N/A   Clear
5:55 PM 35.6 °F 27.1 °F 30.2 °F 81% 29.81 in 10.0 mi South 12.7 mph 18.4 mph N/A   Clear
6:15 PM 35.6 °F 28.6 °F 30.2 °F 81% 29.81 in 10.0 mi South 9.2 mph 19.6 mph N/A   Clear
6:35 PM 35.6 °F 27.5 °F 32.0 °F 87% 29.80 in 10.0 mi South 11.5 mph 17.3 mph N/A   Clear
6:55 PM 35.6 °F 27.5 °F 32.0 °F 87% 29.79 in 10.0 mi South 11.5 mph 18.4 mph N/A   Clear
7:15 PM 35.6 °F 28.0 °F 32.0 °F 87% 29.78 in 10.0 mi South 10.4 mph 19.6 mph N/A   Clear
7:35 PM 37.4 °F 29.8 °F 32.0 °F 81% 29.77 in 10.0 mi South 11.5 mph 19.6 mph N/A   Clear
7:55 PM 37.4 °F 29.8 °F 32.0 °F 81% 29.75 in 10.0 mi SSE 11.5 mph 20.7 mph N/A   Clear
8:15 PM 37.4 °F 29.3 °F 32.0 °F 81% 29.74 in 10.0 mi South 12.7 mph 20.7 mph N/A   Clear
8:35 PM 39.2 °F 32.0 °F 32.0 °F 75% 29.75 in 10.0 mi South 11.5 mph 26.5 mph N/A   Clear
8:55 PM 39.2 °F 31.6 °F 32.0 °F 75% 29.75 in 10.0 mi South 12.7 mph 21.9 mph N/A   Clear
9:15 PM 39.2 °F 32.5 °F 32.0 °F 75% 29.75 in 10.0 mi South 10.4 mph 20.7 mph N/A   Clear
9:35 PM 39.2 °F 33.6 °F 32.0 °F 75% 29.76 in 10.0 mi South 8.1 mph - N/A   Clear
9:55 PM 39.2 °F 33.6 °F 32.0 °F 75% 29.76 in 10.0 mi South 8.1 mph - N/A   Clear
10:15 PM 39.2 °F 32.5 °F 30.2 °F 70% 29.76 in 10.0 mi SSW 10.4 mph 18.4 mph N/A   Clear
10:35 PM 39.2 °F 32.5 °F 30.2 °F 70% 29.75 in 10.0 mi South 10.4 mph 17.3 mph N/A   Clear
10:55 PM 41.0 °F 35.2 °F 30.2 °F 65% 29.75 in 10.0 mi SSW 9.2 mph 16.1 mph N/A   Clear
11:15 PM 41.0 °F 35.2 °F 30.2 °F 65% 29.75 in 10.0 mi SSW 9.2 mph 17.3 mph N/A   Clear
11:35 PM 41.0 °F 36.4 °F 30.2 °F 65% 29.74 in 10.0 mi SSW 6.9 mph - N/A   Clear
11:55 PM 39.2 °F 34.2 °F 30.2 °F 70% 29.74 in 10.0 mi SSW 6.9 mph - N/A   Clear